Location: Newark
(50.4348°N, 30.5552°E)
Time: 09:52:53
(UTC+00:00)

Transit 2A Rocket - Pass Details

Date: 29 January 2020
Orbit: 591 x 912 km, 66.7° (Epoch: 22 February)

Event Time Altitude Azimuth Distance (km) Brightness Sun altitude
Exits shadow 04:49:36 10° 291° (WNW) 1,948 6.4 -7.9°
Reaches altitude 10° 04:49:37 10° 291° (WNW) 1,943 6.4 -7.9°
Maximum altitude 04:52:32 17° 333° (NNW) 1,547 6.2 -7.4°
Drops below altitude 10° 04:55:33 10° 16° (NNE) 2,011 7.2 -7.0°
Sets 04:58:37 0° 36° (NE) 2,973 8.3 -6.5°
